Weather History for Shreveport, LA

Change the Weather History Date:

Friday, June 13, 2014

  Actual Average Record
Temperature  
Mean Temperature 81 °F 80 °F  
Max Temperature 90 °F 90 °F 101 °F (2011)
Min Temperature 71 °F 69 °F 58 °F (1985)
Degree Days  
Heating Degree Days 0 0  
Month to date heating degree days 0 0  
Since 1 June heating degree days 0 0  
Since 1 July heating degree days 2567 2226  
Cooling Degree Days 16 14  
Month to date cooling degree days 188 173  
Year to date cooling degree days 558 571  
Since 1 June cooling degree days 188 173  
Growing Degree Days 30 (Base 50)    
Moisture  
Dew Point 68 °F    
Average Humidity 70    
Maximum Humidity 93    
Minimum Humidity 46    
Precipitation  
Precipitation 0.00 in 0.21 in 1.97 in (1966)
Month to date precipitation 1.19 2.29  
Year to date precipitation 19.26 24.50  
Snow  
Snow 0.00 in - - ()
Month to date snowfall 0.0  
Since 1 June snowfall 0.0  
Since 1 July snowfall 1.0  
Snow Depth 0.00 in    
Sea Level Pressure  
Sea Level Pressure 29.94 in    
Wind  
Wind Speed 6 mph (NNE)    
Max Wind Speed 14 mph    
Max Gust Speed 16 mph    
Visibility 9 miles    
Events      
T = Trace of Precipitation, MM = Missing Value Source: NWS Daily Summary

Daily Weather History Graph

Daily Weather History Graph

Search for Another Location

Airport:

Trip Planner

Search our weather history database for the weather conditions in past years. The results will help you decide how hot, cold, wet, or windy it might be!

Date:

Astronomy

Jun. 13, 2014 Rise Set
Actual Time 6:07 AM CDT 8:23 PM CDT
Civil Twilight 5:39 AM CDT 8:51 PM CDT
Nautical Twilight 5:04 AM CDT 9:26 PM CDT
Astronomical Twilight 4:26 AM CDT 10:04 PM CDT
Moon 8:59 PM CDT (6/13) 6:43 AM CDT (6/13)
Length of Visible Light 15h 12m
Length of Day
14h 15m
Full, 100% of the Moon is Illuminated
Jun 13
Full
Jun 19
Last Quarter
Jun 27
New
Jul 5
First Quarter
Jul 12
Full

Hourly Weather History & Observations

Time (CDT) Temp. Heat Index Dew Point Humidity Pressure Visibility Wind Dir Wind Speed Gust Speed Precip Events Conditions
12:56 AM 73.9 °F - 71.1 °F 91% 29.90 in 6.0 mi NW 4.6 mph - N/A   Clear
1:56 AM 73.4 °F - 69.8 °F 88% 29.91 in 5.0 mi West 4.6 mph - N/A   Mostly Cloudy
2:56 AM 72.0 °F - 70.0 °F 93% 29.91 in 4.0 mi Calm Calm - N/A   Overcast
3:56 AM 72.0 °F - 70.0 °F 93% 29.92 in 5.0 mi West 4.6 mph - N/A   Overcast
4:56 AM 73.0 °F - 71.1 °F 93% 29.92 in 6.0 mi NNW 5.8 mph - N/A   Overcast
5:56 AM 72.0 °F - 70.0 °F 93% 29.94 in 6.0 mi Calm Calm - N/A   Overcast
6:56 AM 73.0 °F - 70.0 °F 90% 29.96 in 7.0 mi North 6.9 mph - N/A   Mostly Cloudy
7:56 AM 75.0 °F - 68.0 °F 79% 29.98 in 9.0 mi NE 10.4 mph - N/A   Scattered Clouds
8:56 AM 77.0 °F - 66.0 °F 69% 29.97 in 10.0 mi NNE 10.4 mph - 0.14 in   Scattered Clouds
9:56 AM 80.1 °F 82.1 °F 66.0 °F 62% 29.97 in 10.0 mi NE 10.4 mph - N/A   Scattered Clouds
10:56 AM 82.0 °F 84.1 °F 66.0 °F 58% 29.98 in 10.0 mi NNE 5.8 mph - N/A   Partly Cloudy
11:56 AM 84.0 °F 86.5 °F 66.9 °F 56% 29.98 in 10.0 mi Calm Calm - N/A   Partly Cloudy
12:56 PM 86.0 °F 89.4 °F 68.0 °F 55% 29.97 in 10.0 mi Variable 4.6 mph - N/A   Partly Cloudy
1:56 PM 87.1 °F 91.3 °F 69.1 °F 55% 29.96 in 10.0 mi NE 8.1 mph - N/A   Scattered Clouds
2:56 PM 86.0 °F 89.4 °F 68.0 °F 55% 29.95 in 10.0 mi ENE 6.9 mph - N/A   Scattered Clouds
3:56 PM 89.6 °F 93.4 °F 68.0 °F 49% 29.94 in 10.0 mi NNW 5.8 mph - N/A   Partly Cloudy
4:56 PM 88.0 °F 90.7 °F 66.9 °F 49% 29.92 in 10.0 mi NNW 4.6 mph - N/A   Scattered Clouds
5:56 PM 88.0 °F 90.7 °F 66.9 °F 49% 29.90 in 10.0 mi NNE 4.6 mph - N/A   Scattered Clouds
6:56 PM 87.1 °F 88.9 °F 64.9 °F 48% 29.90 in 10.0 mi North 5.8 mph - N/A   Scattered Clouds
7:56 PM 82.9 °F 85.4 °F 66.9 °F 58% 29.92 in 10.0 mi ENE 5.8 mph - N/A   Scattered Clouds
8:56 PM 78.1 °F - 66.0 °F 66% 29.93 in 10.0 mi East 5.8 mph - N/A   Partly Cloudy
9:56 PM 77.0 °F - 66.9 °F 71% 29.93 in 10.0 mi East 5.8 mph - N/A   Scattered Clouds
10:56 PM 75.9 °F - 66.9 °F 74% 29.94 in 10.0 mi East 8.1 mph - N/A   Partly Cloudy
11:56 PM 73.9 °F - 66.0 °F 76% 29.95 in 10.0 mi ESE 3.5 mph - N/A   Clear